Weather Roundup
Issued by NWS Corpus Christi, TX

Home | Current Version | Previous Version | Text Only | Print | Product List | Glossary On
Versions: 1 2 3 4 5 6 7 8 9 10 11 12 13 14 15 16 17 18 19 20 21 22 23 24 25 26 27 28 29 30 31 32 33 34 35 36 37 38 39 40 41 42 43 44 45 46 47 48 49 50
000
ASUS44 KCRP 301510
HRRCRP

SOUTH TEXAS REGIONAL WEATHER ROUNDUP
NATIONAL WEATHER SERVICE CORPUS CHRISTI TX
900 AM CST FRI JAN 30 2015


TXZ229>244-301600-
...CORPUS CHRISTI AREA OBSERVATIONS...

CITY           SKY/WX    TMP DP  RH WIND       PRES   REMARKS
CORPUS CHRISTI PTSUNNY   57  42  57 NE22G29   30.36R
NAS CORPUS CHR PTSUNNY   58  46  64 NE17      30.36R
ROCKPORT       NOT AVBL
KINGSVILLE NAS PTSUNNY   58  45  62 NE16      30.36R
ALICE          PTSUNNY   59  41  51 NE16      30.37R
FALFURRIAS     CLOUDY    58  45  60 N10       30.36R
$$

...VICTORIA AREA OBSERVATIONS...

CITY           SKY/WX    TMP DP  RH WIND       PRES   REMARKS
VICTORIA       MOSUNNY   54  40  59 N14       30.39R
BEEVILLE       FAIR      55  40  57 NE10      30.38R
PLEASANTON     CLOUDY    52  35  51 NE13      30.41R
SAN ANTONIO    CLOUDY    51  34  52 NE14G20   30.41R
$$

...LAREDO AREA OBSERVATIONS...

CITY           SKY/WX    TMP DP  RH WIND       PRES   REMARKS
LAREDO         PTSUNNY   58  40  51 E18       30.36S
DEL RIO        NOT AVBL
MCALLEN        CLOUDY    63  62  97 NE9       30.33R FOG
HEBBRONVILLE   MOSUNNY   57  42  57 NE10      30.37R HAZE
$$

...OTHER TEXAS OBSERVATIONS...

CITY           SKY/WX    TMP DP  RH WIND       PRES   REMARKS
BROWNSVILLE    SUNNY     68  65  90 NE6       30.31R FOG
HOUSTON        NOT AVBL
COL. STATION   NOT AVBL
AUSTIN         CLOUDY    48  34  58 N15       30.45R
WACO           PTSUNNY   45  33  63 NE13      30.49R
FORT WORTH     PTSUNNY   43  31  62 NE9       30.50R
WICHITA FALLS  PTSUNNY   40  30  67 NE8       30.52R
LUBBOCK        CLOUDY    38  27  64 SE13      30.42F WCI  30
EL PASO        CLOUDY    41  36  82 NE9       30.24F
$$

...MARINE OBSERVATIONS...

STATION/POSITION TIME  SKY/WX   TEMP    WIND        PRES    VSBY  WAVE   SWELL
                                AIR SEA DIR/SP/G                  HT/PER HT/PER
                 (UTC)          (F)     (DEG/KT/KT) (MB)    (MI)  (FT/S) (FT/S)
PORT ARANSAS     1500            55 61  360/ 18/ 21 1028.4R
BUOY 90 E PORT A 1500            62 67   40/ 19/ 23 1027.2R         4/ 5
BUOY 45 SE BAFFI 1500            67 67   40/ 14/ 17 1025.9R         2/ 4
BUOY 200 E PT IS 1500            71 72   80/ 10/ 12 1025.5R         1/ 5   2/ 5
BUOY 15 E GALVES 1500            54 58   60/ 17/ 19 1028.4R         3/ 5
$$


USA.gov is the U.S. government's official web portal to all federal, state and local government web resources and services.